Location: Newark
(50.0336°N, 22.0047°E)
Time: 20:23:19
(UTC+00:00)

Envisat - Pass Details

Date: 02 February 2020
Orbit: 764 x 766 km, 98.1° (Epoch: 19 February)

Event Time Altitude Azimuth Distance (km) Brightness Sun altitude
Rises 15:51:49 0° 156° (SSE) 3,222 6.2 -4.5°
Reaches altitude 10° 15:54:08 10° 154° (SSE) 2,299 5.4 -4.9°
Maximum altitude 15:59:09 68° 72° (ENE) 826 3.0 -5.6°
Drops below altitude 10° 16:04:13 10° 350° (N) 2,315 5.4 -6.4°
Sets 16:06:32 0° 348° (NNW) 3,245 6.2 -6.7°
